DECAYED

OBJECT F, 62614 (Decayed)

Orbit data source: Space-Track

You're viewing an Uncataloged Satellite

Recently launched and/or uncataloged satellites may have evolving metadata. Metadata may include but not limited to: Owner, Maufacturer, Bus, Motor, and Mission.

OBJECT F, 62614 was a satellite in LEO that was launched on Tue, 14 Jan 2025 UTC via an FALCON 9 launch vehicle from the Air Force Western Test Range (AFWTR). Unknown objects in Earth's orbit typically refer to objects detected orbiting the Earth but have not yet been identified or cataloged. These objects could be anything from previously untracked satellites, spent rocket stages, debris from satellite collisions, or even natural meteoroids temporarily captured by Earth's gravity. This object's orbit decayed before it could be identified.

Not visible in the next 10 days
Identifier
62614, 2025-009F
Orbit
Decayed
Country
Flag of TBDTBD
Related business
None
Manufacturer
Unknown
Mission
Decayed Amateur Technology
Bus & Motor
Unknown
Mass
Unknown
Launch date (UTC)
2025-01-14 (1 year ago)
Launch vehicle
FALCON 9
Launch site
Air Force Western Test Range (AFWTR)
Object type
Unknown
Shape & HBR
Box, 0.3 m
Radar Cross Section
0.015 m², Medium (>0.1 m² and < 1m²)

Expand to show TLE details & history
Last TLE update: 2 months ago

TLE from 2 months ago
0 OBJECT F
1 62614U 25009F   26095.97728757  .16455444  25422-5  51905-3 0  9995
2 62614  97.3587 188.5500 0016550 268.6986  91.2419 16.43244871 68571
Epoch: 2026-04-05T23:27Z
TLE epoch observation values (Epoch: 2026-04-05T23:27:17.646Z)
Latitude
-0.00002°
Longitude
2.45151°
Altitude
160.694 km
Speed
7.81 km/s
True Right ascension
12h 34m 12s
True Declination
0° 00' 00"
Sunlit
Object was in full shadow at epoch
Visualization orbit readout
Latitude
Unknown
Longitude
Unknown
Altitude
Unknown
Speed
Unknown
Apparent Right ascension
Unknown
Apparent Declination
Unknown
Sunlit
N/A
Visualization observer readout
Local Sidereal Time
10:18:56
Azimuth
Unknown
Elevation
Unknown
Doppler factor
Unknown
Orbital elements
Apogee altitude
164.797 km
Perigee altitude
143.176 km
Semi-major axis
6,532.123 km
Eccentricity
0.00166
Inclination
97.3587°
RAAN
188.55°
Arg. of periapsis
268.6986°
True anomaly
91.4315°
Mean anomaly
91.2419°
Eccentric anomaly
91.3367°
Mean motion
4.11113 °/min
Orbital period
87.57 mins
BSTAR
0.00051905
Loading maneuver chart data...
Computing Atmospheric mass density...
Loading historical data...
Loading historical data...
Loading historical data...
Loading historical data...
Loading historical data...
Loading historical data...
Loading historical data...

Documentation

Showing up to 5 results
|